Regional Weather Roundup
Issued by NWS Midland/Odessa, TX

Skip options and go directly to product.
Home | Oldest Version | Previous Version | Current Version | All | Text Only | Save Text | Print | Product List | Glossary On

Skip product version selection by date and time.   
902
ASUS44 KMAF 242010
RWRMAF
MIDLAND AREA WEATHER ROUNDUP
NATIONAL WEATHER SERVICE MIDLAND TX
200 PM CST MON NOV 24 2014

...IN SOUTHWEST TEXAS AND SOUTHEAST NEW MEXICO...

CITY           SKY/WX    TMP DP  RH WIND       PRES   REMARKS
ALPINE         MOSUNNY   52   6  15 CALM      30.13F
ANDREWS        FAIR      53  17  24 W8        30.05F
ARTESIA        NOT AVBL
BIG SPRING     SUNNY     54  28  37 SW7       30.07F
CARLSBAD       SUNNY     59  -4   7 CALM      30.02F
DRYDEN           N/A     63  13  14 CALM      30.03F
FORT STOCKTON  MOSUNNY   55  10  16 NW8       30.07F
GUAD PASS      SUNNY     51  -1  11 W36G43    30.04F
HOBBS          SUNNY     52   5  15 W9G17     30.04F
MARFA          SUNNY     52   7  16 W15       30.10F
MIDLAND AIRPK  SUNNY     55  28  36 W7        30.07S
MIDLAND INTL   SUNNY     54  26  34 W7        30.06F
ODESSA         SUNNY     54  23  30 NW8       30.06F
PECOS          SUNNY     57  10  15 NW8       30.07F
PRESIDIO       FAIR      61   5  10 NW13G23   30.07F
SEMINOLE       SUNNY     54  11  18 W8        30.04F
SNYDER         SUNNY     53  27  36 SW9       30.05F
WINK           SUNNY     58   3  11 NW9       30.04F
$$
...OTHER STATIONS IN TEXAS...

CITY           SKY/WX    TMP DP  RH WIND       PRES   REMARKS
ABILENE        SUNNY     58  20  22 CALM      30.06F
AMARILLO       PTSUNNY   51  12  21 NW6       30.01F
AUSTIN         MOSUNNY   65  25  22 N12       30.05F
BROWNSVILLE    PTSUNNY   65  46  50 N15G28    30.01F
CORPUS CHRISTI MOSUNNY   67  37  33 N14G22    30.02F
DALLAS FTW     PTSUNNY   59  23  25 VRB6      30.05S
DEL RIO        SUNNY     64  27  24 VRB3      30.05F
EL PASO        SUNNY     56  -3   9 W13       30.09F
HOUSTON INT    MOSUNNY   65  31  28 NW14      30.02F
LUBBOCK        MOSUNNY   53  20  27 NW10      30.02F
SAN ANGELO     MOSUNNY   58  21  24 SE5       30.06F
SAN ANTONIO    MOSUNNY   66  28  24 N12       30.06F
WACO           MOSUNNY   62  22  21 NW6       30.07S
WICHITA FALLS  NOT AVBL
$$
...OTHER LOCATIONS IN NEW MEXICO...

CITY           SKY/WX    TMP DP  RH WIND       PRES   REMARKS
ALAMAGORDO     MOSUNNY   50   0  12 N15       30.12F
ALBUQUERQUE    PTSUNNY   44   7  21 NW24G32   30.11F WCI  35
CANNON AFB     MOSUNNY   49   2  14 N6        29.99F
CLOVIS         MOSUNNY   46   3  17 N3        30.00F
HOLLOMAN AFB   MOSUNNY   52  -3  10 NE15      30.10F
ROSWELL        SUNNY     58   2  10 NW20G28   30.01F
RUIDOSO        SUNNY     39   0  19 NW24G38   30.06F WCI  28
SANTA FE       SUNNY     39   7  26 N7        30.05F WCI  34
TRUTH OR CONSE SUNNY     51  -2  11 E10       30.09F
TUCUMCARI      PTSUNNY   45  17  32 NW5       30.00F
$$

USA.gov is the U.S. government's official web portal to all federal, state and local government web resources and services.